Weather History for Barrow, AK

Change the Weather History Date:

Saturday, April 13, 2013

  Actual Average Record
Temperature  
Mean Temperature -5 °F -  
Max Temperature 5 °F - 36 °F (1965)
Min Temperature -15 °F -7 °F -40 °F (1924)
Degree Days  
Heating Degree Days 70 65  
Month to date heating degree days 937 896  
Since 1 July heating degree days 15144 16148  
Cooling Degree Days 0    
Month to date cooling degree days 0  
Year to date cooling degree days 0  
Moisture  
Dew Point -12 °F    
Average Humidity 0    
Maximum Humidity 0    
Minimum Humidity 0    
Precipitation  
Precipitation 0.00 in 0.01 in 0.18 in (1989)
Month to date precipitation 0.04 0.07  
Year to date precipitation 0.67 0.43  
Snow  
Snow 0.00 in 0.10 in 1.80 in (1989)
Month to date snowfall 1.5 1.3  
Since 1 July snowfall 53.4 32.4  
Snow Depth 6.00 in    
Sea Level Pressure  
Sea Level Pressure 30.44 in    
Wind  
Wind Speed 9 mph (East)    
Max Wind Speed 14 mph    
Max Gust Speed 15 mph    
Visibility 10 miles    
Events      
T = Trace of Precipitation, MM = Missing Value Source: NWS Daily Summary

Daily Weather History Graph

Daily Weather History Graph

Search for Another Location

Airport:

Trip Planner

Search our weather history database for the weather conditions in past years. The results will help you decide how hot, cold, wet, or windy it might be!

Date:

Astronomy

Apr. 13, 2013 Rise Set
Actual Time 6:20 AM AKDT 10:37 PM AKDT
Civil Twilight 4:51 AM AKDT 12:09 AM AKDT
Nautical Twilight Sun does not rise Sun does not rise
Astronomical Twilight Sun does not rise Sun does not rise
Moon No Moon Rise No Moon Set
Length of Visible Light 19h 18m
Length of Day
16h 17m
Waxing Crescent, 11% of the Moon is Illuminated
Apr 13
Waxing Crescent
Apr 18
First Quarter
Apr 25
Full
May 2
Last Quarter
May 9
New

Hourly Weather History & Observations

Time (AKDT) Temp. Windchill Dew Point Humidity Pressure Visibility Wind Dir Wind Speed Gust Speed Precip Events Conditions
12:53 AM -11.9 °F -31.0 °F -18.9 °F 71% 30.43 in 10.0 mi ESE 10.4 mph - N/A   Clear
1:53 AM -9.9 °F -27.5 °F -18.0 °F 68% 30.43 in 10.0 mi ESE 9.2 mph - N/A   Clear
2:53 AM -13.0 °F -30.0 °F -20.0 °F 71% 30.42 in 10.0 mi East 8.1 mph - N/A   Scattered Clouds
3:53 AM -14.1 °F -31.3 °F -20.9 °F 71% 30.41 in 10.0 mi East 8.1 mph - N/A   Scattered Clouds
4:53 AM -13.0 °F -32.4 °F -20.9 °F 68% 30.41 in 10.0 mi East 10.4 mph - N/A   Scattered Clouds
5:53 AM -11.9 °F -33.0 °F -18.9 °F 71% 30.40 in 10.0 mi East 12.7 mph - N/A   Scattered Clouds
6:53 AM -11.9 °F -32.0 °F -18.9 °F 71% 30.39 in 10.0 mi ESE 11.5 mph - N/A   Mostly Cloudy
6:56 AM -11.2 °F -31.1 °F -18.4 °F 70% 30.38 in 10.0 mi East 11.5 mph - N/A   Mostly Cloudy
7:53 AM -9.9 °F -29.6 °F -17.0 °F 71% 30.39 in 10.0 mi East 11.5 mph - N/A   Mostly Cloudy
8:09 AM -9.4 °F -28.9 °F -18.4 °F 65% 30.38 in 10.0 mi East 11.5 mph - N/A   Overcast
8:53 AM -9.0 °F -27.4 °F -16.1 °F 71% 30.40 in 10.0 mi East 10.4 mph - N/A   Mostly Cloudy
9:53 AM -9.0 °F -26.4 °F -15.0 °F 75% 30.40 in 10.0 mi East 9.2 mph - N/A   Mostly Cloudy
10:53 AM -6.0 °F -21.5 °F -11.9 °F 75% 30.42 in 10.0 mi East 8.1 mph - N/A   Mostly Cloudy
11:53 AM -2.9 °F -18.8 °F -9.9 °F 72% 30.42 in 10.0 mi East 9.2 mph - N/A   Mostly Cloudy
12:53 PM -0.0 °F -16.3 °F -7.1 °F 72% 30.42 in 10.0 mi East 10.4 mph - N/A   Mostly Cloudy
1:53 PM 1.0 °F -14.9 °F -6.0 °F 72% 30.42 in 10.0 mi ENE 10.4 mph - N/A   Mostly Cloudy
2:53 PM 3.0 °F -13.3 °F -4.0 °F 73% 30.43 in 10.0 mi ENE 11.5 mph - N/A   Mostly Cloudy
3:53 PM 3.9 °F -11.3 °F -4.0 °F 70% 30.45 in 10.0 mi East 10.4 mph - N/A   Mostly Cloudy
4:53 PM 5.0 °F -8.1 °F -2.9 °F 70% 30.45 in 10.0 mi East 8.1 mph - N/A   Scattered Clouds
5:53 PM 5.0 °F -10.0 °F -2.9 °F 70% 30.47 in 10.0 mi NE 10.4 mph - N/A   Scattered Clouds
6:53 PM 3.9 °F -12.2 °F -4.0 °F 70% 30.48 in 10.0 mi ENE 11.5 mph - N/A   Scattered Clouds
7:53 PM 3.9 °F -12.2 °F -4.0 °F 70% 30.49 in 10.0 mi NE 11.5 mph - N/A   Partly Cloudy
8:53 PM 1.9 °F -13.8 °F -5.1 °F 72% 30.50 in 10.0 mi NE 10.4 mph - N/A   Partly Cloudy
9:53 PM -0.9 °F -15.3 °F -8.0 °F 72% 30.51 in 10.0 mi East 8.1 mph - N/A   Partly Cloudy
10:53 PM -2.9 °F -11.2 °F -9.0 °F 75% 30.54 in 10.0 mi ENE 3.5 mph - N/A   Partly Cloudy
11:53 PM -5.1 °F - -9.0 °F 83% 30.56 in 10.0 mi Calm Calm - N/A   Partly Cloudy